This is the latest recevied weather packets stored in our database for station/object TG5ALY-16. If no packets are shown the sender has not sent any weather packets the latest 10 day(s).
| Time | Temp. | Humidity | Pressure | Rain* | Wind** | Luminosity | Snow |
|---|---|---|---|---|---|---|---|
| 1778171080 | 22.22° C | 57% | 1016 hPa | 0 mm | - | - | - |
| 1778170479 | 22.22° C | 57% | 1016 hPa | 0 mm | - | - | - |
| 1778169879 | 22.22° C | 57% | 1016 hPa | 0 mm | - | - | - |
| 1778169278 | 21.67° C | 61% | 1016 hPa | 0 mm | - | - | - |
| 1778168879 | 21.11° C | 63% | 1016 hPa | 0 mm | - | - | - |
| 1778168278 | 21.11° C | 63% | 1016 hPa | 0 mm | - | - | - |
| 1778167678 | 20° C | 67% | 1016 hPa | 0 mm | - | - | - |
| 1778167077 | 20° C | 68% | 1016 hPa | 0 mm | - | - | - |
| 1778166477 | 18.33° C | 75% | 1016 hPa | 0 mm | - | - | - |
| 1778165876 | 17.78° C | 75% | 1016 hPa | 0 mm | - | - | - |
| 1778165275 | 18.33° C | 73% | 1016 hPa | 0 mm | - | - | - |
| 1778164675 | 18.33° C | 73% | 1016 hPa | 0 mm | - | - | - |
| 1778164074 | 17.78° C | 73% | 1017 hPa | 0 mm | - | - | - |
| 1778163473 | 17.78° C | 75% | 1017 hPa | 0 mm | - | - | - |
| 1778162873 | 16.11° C | 82% | 1017 hPa | 0 mm | - | - | - |
| 1778162272 | 16.11° C | 82% | 1017 hPa | 0 mm | - | - | - |
| 1778161672 | 16.11° C | 81% | 1017 hPa | 0 mm | - | - | - |
| 1778161071 | 16.11° C | 81% | 1017 hPa | 0 mm | - | - | - |
| 1778160470 | 15° C | 85% | 1017 hPa | 0 mm | - | - | - |
| 1778159869 | 15° C | 85% | 1017 hPa | 0 mm | - | - | - |
| 1778159269 | 14.44° C | 86% | 1017 hPa | 0 mm | - | - | - |
| 1778158668 | 14.44° C | 88% | 1017 hPa | 0 mm | - | - | - |
| 1778158067 | 14.44° C | 88% | 1017 hPa | 0 mm | - | - | - |
| 1778157467 | 14.44° C | 88% | 1017 hPa | 0 mm | - | - | - |
| 1778156866 | 13.89° C | 88% | 1017 hPa | 0 mm | - | - | - |
* Rain latest hour (hover to see other rain measurements)
** Current wind speed in m/s (hover to see current wind gust speed)